Location: Gibsondale
(40.9931°N, 80.2478°W)
Time: 17:57:46
(UTC+00:00)

NOSS 3-3 (C) - Pass Details

Date: 29 October 2020
Orbit: 825 x 1387 km, 63.4° (Epoch: 22 November)

Event Time Altitude Azimuth Distance (km) Brightness Sun altitude
Rises 23:23:39 0° 207° (SSW) 3,375 7.4 -12.6°
Reaches altitude 10° 23:26:00 10° 206° (SSW) 2,475 6.6 -13.0°
Maximum altitude 23:31:41 76° 121° (ESE) 940 3.8 -14.1°
Drops below altitude 10° 23:38:04 10° 37° (NE) 2,774 6.0 -15.3°
Enters shadow 23:38:38 - 37° (NE) 2,984 6.2 -15.4°
